Location: El Bakhil
(32.7726°N, 5.5387°W)
Time: 23:55:27
(UTC+00:00)

Hubble Space Telescope - Pass Details

Date: 02 December 2021
Orbit: 535 x 538 km, 28.5° (Epoch: 23 January)

Event Time Altitude Azimuth Distance (km) Brightness Sun altitude
Exits shadow 05:28:50 31° 215° (SW) 933 1.8 -20.3°
Maximum altitude 05:29:35 34° 192° (SSW) 882 1.8 -20.2°
Drops below altitude 10° 05:33:19 10° 126° (SE) 1,773 4.4 -19.4°
Sets 05:35:42 0° 117° (ESE) 2,662 5.8 -18.9°
